Lid_Strength_Index
-1 -1 -1 -1 -1 -1 -1 -1 -1 -1 -1 -1 -1 -1 -1 -1 -2 -1 -1 -1 -1 -1 -1 -1 -1 -1 -1 -1 -1 -2 -1 -1 -1 -1 -1 -1 -1 -1 -1 -1 -1 -1 -1
-1 -1 -0 -0 -0 -1 -1 -1 -1 -1 -1 -1 -1 -1 -1 -1 -2 -1 -1 -2 -1 -1 -1 -1 -1 -1 -1 -1 -1 -1 -1 -1 -1 -1 -1 -0 -1 -1 -1 -1 -1 -0 -0
-1 -1 -1 -0 -1 -1 -2 -1 -1 -1 -0 -1 -1 -1 -1 -1 -1 -1 -1 -2 -1 -1 -1 -1 -1 -1 -1 -2 -2 -1 -1 -1 -1 -1 -1 -0 -0 -1 -1 -1 -0 -0 1
-2 -1 -0 -0 -1 -1 -1 -1 -0 0 0 -0 -0 -0 -0 -1 -1 -1 -2 -2 -1 -2 -1 -1 -1 -1 -1 -1 -2 -2 -1 -1 -1 -1 -0 -0 -0 -1 -1 -0 1 1 1
-1 -1 -0 -0 -1 -0 -0 -0 -0 -0 0 0 0 0 -0 -0 -1 -1 -1 -1 -2 -2 -2 -1 -1 -1 -1 -2 -1 -2 -1 -1 -1 -1 -0 -1 -1 -1 -0 0 0 1 1
-1 -1 -1 -1 -0 -0 -0 -0 -0 -0 0 1 1 0 -0 -0 -1 -1 -1 -1 -1 -1 -2 -2 -2 -1 -1 -1 -1 -1 -2 -1 -1 -1 -1 -1 -1 -1 -0 0 1 1 1
-1 -1 -0 -0 -0 0 -0 -0 0 1 1 0 1 1 0 -1 -0 -0 -1 -1 -1 -1 -1 -2 -2 -2 -1 -1 -1 -1 -2 -2 -1 -1 -1 -0 -1 -1 0 1 1 1 1
-1 -1 -0 -0 -0 0 -0 -0 0 1 1 0 2 2 4 2 1 0 -0 -0 0 -1 -1 -1 -2 -1 -1 -1 -1 -1 -1 -2 -2 -2 -1 -1 -1 -0 1 1 1 1 1
-1 -1 -0 -0 -0 -0 0 0 0 1 2 1 0 2 4 4 3 1 0 0 -0 0 -1 -1 -1 -1 -0 -1 -1 -1 -1 -2 -2 -1 -1 -1 -0 0 1 1 1 1 1
-1 -1 -1 -0 -0 -1 0 -0 -0 0 0 2 1 1 0 1 4 5 1 0 0 0 0 -1 -1 -1 -1 -1 -1 -1 -1 -1 -2 -1 -1 -0 0 0 0 1 1 0 0
-0 -0 -1 -1 -1 -0 -0 -0 0 0 0 1 1 1 1 1 0 3 5 3 1 0 0 -1 -0 -0 -1 -1 -1 -1 -1 -1 -0 -0 -0 0 1 0 0 0 0 0 0
-0 -1 -1 -1 -1 -1 -0 -0 -0 -0 -0 0 0 0 1 2 3 2 3 3 4 2 1 0 -0 0 -0 -0 -1 -0 0 1 1 1 1 0 -0 -0 -0 -0 -0 -0 -0
1 0 -1 -1 -1 -1 -1 -1 -0 -0 0 0 0 0 0 0 -0 1 2 3 4 3 2 0 0 -0 -1 -0 0 0 1 2 2 2 2 1 0 -0 -1 -1 -0 -0 -0
0 -1 -1 -1 -1 -1 -1 -1 -1 -0 -0 -0 0 -0 0 0 -0 0 2 3 5 4 3 3 0 -0 -0 0 1 1 2 2 3 3 3 2 1 1 -0 -0 -1 -0 -0
-0 -1 -1 -1 -1 -1 -1 -1 -1 -0 -0 0 0 1 -0 -0 -0 -1 0 1 3 6 5 2 2 0 0 1 1 1 2 2 2 3 3 3 2 1 1 1 0 1 1
-0 -0 -0 -0 -0 -1 -1 -1 -0 -0 0 0 0 1 0 -0 1 0 1 1 1 3 5 2 2 1 1 1 1 1 2 2 3 3 3 3 3 2 2 2 1 1 1
-0 -0 -0 -0 -0 -0 -0 -0 -0 -0 1 0 0 0 1 0 1 1 1 1 1 1 4 3 2 2 2 2 2 1 1 1 2 3 3 3 3 3 2 2 2 0 -1
-0 -0 -0 0 0 -0 -0 0 0 0 1 1 1 1 1 1 1 0 -0 1 1 1 3 4 3 3 2 2 2 2 2 1 1 3 3 3 4 3 3 0 0 2 2
0 -0 -0 0 0 0 0 -0 0 0 1 1 1 1 1 1 1 1 1 1 1 1 2 3 3 2 2 2 2 2 2 2 1 2 4 4 4 2 2 2 3 4 5
0 0 0 0 0 0 0 0 0 0 1 1 0 0 0 1 1 1 1 1 1 2 2 3 3 3 3 2 2 3 4 2 2 1 3 3 2 3 4 4 5 6 7
0 0 0 0 0 0 0 0 0 1 1 1 0 0 0 1 2 1 1 1 1 2 3 3 4 3 3 3 3 3 3 2 1 1 1 -0 -0 1 3 5 6 6 6
1 1 1 1 1 0 6 5 1 1 1 1 1 1 -0 1 3 6 6 4 2 2 3 3 3 4 3 3 2 3 3 3 3 -0 -0 0 -1 1 2 3 6 7 8
1 0 1 1 1 0 7 6 5 0 1 1 1 1 1 0 1 1 6 6 6 7 4 2 3 3 3 2 2 2 2 2 2 0 0 2 0 2 4 6 7 8 8
1 2 1 2 1 0 8 7 6 0 0 0 1 1 1 1 1 2 2 1 2 3 1 1 1 1 1 -0 -0 1 0 0 0 -0 -1 2 1 3 4 5 8 8 8
1 1 1 2 3 1 9 9 4 0 1 1 1 0 1 2 9 7 2 2 4 5 8 8 6 6 7 6 2 -0 1 2 2 1 -1 1 1 3 3 4 6 8 9
1 1 1 1 5 3 10 9 3 0 1 1 0 1 7 4 9 7 1 2 2 1 1 2 3 5 3 4 6 -1 0 2 2 2 -0 1 2 2 3 2 3 5 6